Weather History for Indianapolis, IN

Change the Weather History Date:

Friday, October 5, 2012

  Actual Average Record
Temperature  
Mean Temperature 52 °F 59 °F  
Max Temperature 63 °F 69 °F 87 °F (1922)
Min Temperature 41 °F 48 °F 31 °F (1968)
Degree Days  
Heating Degree Days 13 7  
Month to date heating degree days 31 34  
Since 1 July heating degree days 119 109  
Cooling Degree Days 0 1  
Month to date cooling degree days 1 6  
Year to date cooling degree days 1531 1055  
Moisture  
Dew Point 45 °F    
Average Humidity 85    
Maximum Humidity 93    
Minimum Humidity 77    
Precipitation  
Precipitation 1.03 in 0.10 in 2.93 in (1910)
Month to date precipitation 1.76 0.53  
Year to date precipitation 31.98 32.98  
Snow  
Snow 0.00 in 0.00 in 0.00 in ()
Month to date snowfall 0.0 0.0  
Since 1 July snowfall T 0.0  
Since 1 September snowfall T 0.0  
Snow Depth 0.00 in    
Sea Level Pressure  
Sea Level Pressure 30.12 in    
Wind  
Wind Speed 8 mph (NW)    
Max Wind Speed 21 mph    
Max Gust Speed 28 mph    
Visibility 8 miles    
Events Rain , Thunderstorm    
T = Trace of Precipitation, MM = Missing Value Source: NWS Daily Summary

Daily Weather History Graph

Daily Weather History Graph

Search for Another Location

Airport:

Trip Planner

Search our weather history database for the weather conditions in past years. The results will help you decide how hot, cold, wet, or windy it might be!

Date:

Astronomy

Oct. 05, 2012 Rise Set
Actual Time 7:45 AM EDT 7:20 PM EDT
Civil Twilight 7:18 AM EDT 7:47 PM EDT
Nautical Twilight 6:47 AM EDT 8:18 PM EDT
Astronomical Twilight 6:16 AM EDT 8:49 PM EDT
Moon 10:44 PM EDT (10/5) 12:52 PM EDT (10/5)
Length of Visible Light 12h 28m
Length of Day
11h 34m
Waning Gibbous, 74% of the Moon is Illuminated
Oct 5
Waning Gibbous
Oct 8
Last Quarter
Oct 15
New
Oct 21
First Quarter
Oct 29
Full

Hourly Weather History & Observations

Time (EDT) Temp. Windchill Dew Point Humidity Pressure Visibility Wind Dir Wind Speed Gust Speed Precip Events Conditions
12:54 AM 63.0 °F - 55.9 °F 78% 30.12 in 10.0 mi West 8.1 mph - N/A   Mostly Cloudy
1:54 AM 59.0 °F - 55.9 °F 90% 30.11 in 10.0 mi West 6.9 mph - N/A   Partly Cloudy
2:54 AM 57.0 °F - 52.0 °F 83% 30.13 in 10.0 mi NW 6.9 mph - N/A   Partly Cloudy
3:54 AM 55.0 °F - 52.0 °F 89% 30.12 in 10.0 mi NW 4.6 mph - N/A   Scattered Clouds
4:54 AM 54.0 °F - 51.1 °F 90% 30.14 in 10.0 mi NW 9.2 mph - N/A   Mostly Cloudy
5:54 AM 52.0 °F - 45.0 °F 77% 30.14 in 10.0 mi NW 10.4 mph - N/A   Overcast
6:54 AM 52.0 °F - 46.0 °F 80% 30.14 in 10.0 mi NNW 4.6 mph - N/A   Overcast
7:54 AM 52.0 °F - 46.0 °F 80% 30.14 in 10.0 mi NNW 6.9 mph - N/A   Mostly Cloudy
8:29 AM 51.8 °F - 46.4 °F 82% 30.14 in 10.0 mi North 9.2 mph - N/A   Overcast
8:50 AM 51.8 °F - 46.4 °F 82% 30.15 in 10.0 mi North 5.8 mph - N/A   Overcast
8:54 AM 51.1 °F - 46.0 °F 83% 30.16 in 10.0 mi NNW 8.1 mph - N/A   Overcast
8:57 AM 51.8 °F - 46.4 °F 82% 30.16 in 10.0 mi NNW 9.2 mph - N/A Thunderstorm Thunderstorm
9:12 AM 50.0 °F - 46.4 °F 87% 30.14 in 8.0 mi North 4.6 mph - 0.01 in Rain , Thunderstorm Light Thunderstorms and Rain
9:50 AM 50.0 °F - 48.2 °F 94% 30.15 in 9.0 mi NW 5.8 mph - 0.03 in Rain Light Rain
9:54 AM 50.0 °F - 48.0 °F 93% 30.15 in 9.0 mi NW 3.5 mph - 0.04 in Rain Light Rain
10:06 AM 50.0 °F - 48.2 °F 94% 30.17 in 10.0 mi NW 5.8 mph - 0.00 in   Overcast
10:33 AM 48.2 °F - 46.4 °F 93% 30.17 in 10.0 mi WNW 3.5 mph - 0.00 in Rain , Thunderstorm Light Thunderstorms and Rain
10:54 AM 48.9 °F - 46.9 °F 93% 30.17 in 5.0 mi WNW 8.1 mph - 0.00 in Rain , Thunderstorm Light Thunderstorms and Rain
11:21 AM 48.2 °F - 46.4 °F 93% 30.17 in 6.0 mi NW 10.4 mph - 0.06 in Rain Light Rain
11:37 AM 48.2 °F - 46.4 °F 93% 30.15 in 4.0 mi NW 4.6 mph - 0.10 in Rain Rain
11:54 AM 48.0 °F - 46.0 °F 93% 30.14 in 3.0 mi NW 4.6 mph - 0.14 in Rain Light Rain
12:07 PM 46.4 °F 44.3 °F 46.4 °F 100% 30.15 in 4.0 mi WNW 4.6 mph - 0.04 in Rain Light Rain
12:50 PM 46.4 °F 42.9 °F 44.6 °F 93% 30.14 in 3.0 mi NW 6.9 mph - 0.19 in Rain Rain
12:54 PM 46.4 °F 42.4 °F 44.6 °F 93% 30.13 in 3.0 mi NNW 8.1 mph - N/A Rain Rain
1:03 PM 46.4 °F 42.4 °F 46.4 °F 100% 30.12 in 3.0 mi North 8.1 mph - 0.02 in Rain , Thunderstorm Thunderstorms and Rain
1:26 PM 48.2 °F - 46.4 °F 93% 30.12 in 7.0 mi NNW 4.6 mph - 0.05 in Rain Light Rain
1:51 PM 48.2 °F - 46.4 °F 93% 30.12 in 10.0 mi NW 5.8 mph - 0.05 in Rain Light Rain
1:54 PM 48.0 °F - 46.0 °F 93% 30.12 in 10.0 mi WNW 6.9 mph - 0.05 in Rain Light Rain
2:54 PM 46.0 °F 41.0 °F 44.1 °F 93% 30.10 in 3.0 mi NW 10.4 mph - 0.05 in Rain Rain
3:00 PM 46.4 °F 41.9 °F 44.6 °F 93% 30.10 in 3.0 mi NW 9.2 mph - 0.02 in Rain Rain
3:28 PM 46.4 °F 42.9 °F 44.6 °F 93% 30.09 in 3.0 mi NW 6.9 mph - 0.06 in Rain Rain
3:54 PM 46.0 °F 41.4 °F 45.0 °F 96% 30.11 in 7.0 mi NW 9.2 mph - 0.11 in Rain Light Rain
4:44 PM 46.4 °F 41.5 °F 44.6 °F 93% 30.07 in 10.0 mi NNW 10.4 mph - 0.03 in Rain Light Rain
4:54 PM 46.0 °F 40.6 °F 43.0 °F 89% 30.07 in 10.0 mi NNW 11.5 mph - 0.03 in   Overcast
5:20 PM 46.4 °F 41.9 °F 42.8 °F 87% 30.07 in 10.0 mi NNW 9.2 mph - N/A   Overcast
5:54 PM 46.0 °F 41.0 °F 43.0 °F 89% 30.07 in 10.0 mi NNW 10.4 mph - 0.00 in Rain Light Rain
6:50 PM 42.8 °F 35.1 °F 39.2 °F 87% 30.08 in 9.0 mi NNW 16.1 mph 25.3 mph 0.04 in Rain Light Rain
6:54 PM 42.8 °F 35.4 °F 39.2 °F 87% 30.08 in 9.0 mi NNW 15.0 mph 23.0 mph N/A Rain Light Rain
7:54 PM 41.0 °F 33.1 °F 39.0 °F 93% 30.12 in 10.0 mi NW 15.0 mph - 0.06 in Rain Light Rain
8:40 PM 41.0 °F 33.9 °F 39.2 °F 93% 30.11 in 9.0 mi NNW 12.7 mph - 0.09 in Rain Light Rain
8:54 PM 41.0 °F 34.3 °F 39.9 °F 96% 30.10 in 9.0 mi North 11.5 mph - 0.10 in Rain Light Rain
9:03 PM 42.8 °F 36.6 °F 39.2 °F 87% 30.10 in 8.0 mi NNW 11.5 mph - 0.02 in Rain Light Rain
9:50 PM 41.0 °F 34.7 °F 39.2 °F 93% 30.09 in 7.0 mi NNW 10.4 mph - 0.03 in Rain Rain
9:54 PM 41.0 °F 34.3 °F 39.0 °F 93% 30.14 in 6.0 mi NW 11.5 mph - 0.03 in Rain Light Rain
10:38 PM 41.0 °F 34.3 °F 39.2 °F 93% 30.09 in 4.0 mi North 11.5 mph - 0.10 in Rain Heavy Rain
10:54 PM 41.0 °F 37.1 °F 39.9 °F 96% 30.09 in 4.0 mi NNW 5.8 mph - 0.14 in Rain Rain
11:54 PM 42.1 °F 38.4 °F 39.9 °F 92% 30.10 in 10.0 mi WNW 5.8 mph - 0.03 in   Overcast